Вернуться в каталог

FENGYUN 1C DEB

АктивенSSO
NORAD 30666·DEBRIS·🇨🇳 China

Запущен May 10, 1999 с Taiyuan Satellite Launch Center

Loading…

Ближайшие Пролёты (ближайшие 24 часа)

TLE

СвежийSource: Space-Track

Эпоха: Sep 14, 2026, 10:07 UTC

1 30666U 99025APY 26257.42184008  .00000344  00000-0  24536-3 0  9999
2 30666  98.8499 237.9308 0061753  95.6580  57.0292 14.02801917999754

Отслеживайте FENGYUN 1C DEB в реальном времени с AllMySat

Download on the App Store